Time,TemperatureF,DewpointF,PressureIn,WindDirection,WindDirectionDegrees,WindSpeedMPH,WindSpeedGustMPH,Humidity,HourlyPrecipIn,Conditions,Clouds,dailyrainin,SoftwareType,DateUTC
2013-02-25 00:01:00,30.9,27.5,30.06,South,180,2.0,2.0,87,0.00,,,0.00,meteohub,2013-02-25 05:01:00,
2013-02-25 00:04:00,31.1,27.7,30.06,South,180,2.0,2.0,87,0.00,,,0.00,meteohub,2013-02-25 05:04:00,
2013-02-25 00:07:00,31.1,27.7,30.06,South,180,2.0,2.0,87,0.00,,,0.00,meteohub,2013-02-25 05:07:00,
2013-02-25 00:12:00,30.7,27.3,30.06,South,180,2.0,2.0,87,0.00,,,0.00,meteohub,2013-02-25 05:12:00,
2013-02-25 00:17:00,30.7,27.3,30.07,South,180,1.0,2.0,87,0.00,,,0.00,meteohub,2013-02-25 05:17:00,
2013-02-25 00:22:00,30.7,27.3,30.07,South,180,1.0,2.0,87,0.00,,,0.00,meteohub,2013-02-25 05:22:00,
2013-02-25 00:27:00,30.7,27.3,30.07,South,180,2.0,2.0,87,0.00,,,0.00,meteohub,2013-02-25 05:27:00,
2013-02-25 00:32:00,30.6,27.1,30.07,South,180,2.0,2.0,87,0.00,,,0.00,meteohub,2013-02-25 05:32:00,
2013-02-25 00:37:00,30.2,26.8,30.09,South,180,2.0,2.0,87,0.00,,,0.00,meteohub,2013-02-25 05:37:00,
2013-02-25 00:42:00,30.4,27.0,30.09,South,180,2.0,2.0,87,0.00,,,0.00,meteohub,2013-02-25 05:42:00,
2013-02-25 00:47:00,30.6,27.5,30.08,South,180,1.0,2.0,88,0.00,,,0.00,meteohub,2013-02-25 05:47:00,
2013-02-25 00:52:00,30.6,27.5,30.09,South,180,1.0,2.0,88,0.00,,,0.00,meteohub,2013-02-25 05:52:00,
2013-02-25 00:57:00,30.2,27.1,30.10,South,180,2.0,2.0,88,0.00,,,0.00,meteohub,2013-02-25 05:57:00,
2013-02-25 01:02:00,30.2,27.1,30.10,South,180,0.0,2.0,88,0.00,,,0.00,meteohub,2013-02-25 06:02:00,
2013-02-25 01:07:00,30.2,27.1,30.10,South,180,0.0,2.0,88,0.00,,,0.00,meteohub,2013-02-25 06:07:00,
2013-02-25 01:12:00,31.6,28.2,30.10,North,0,2.0,4.0,87,0.00,,,0.00,meteohub,2013-02-25 06:12:00,
2013-02-25 01:17:00,33.3,29.5,30.11,NE,45,2.0,5.0,86,0.00,,,0.00,meteohub,2013-02-25 06:17:00,
2013-02-25 01:22:00,34.3,30.0,30.11,South,180,2.0,5.0,84,0.00,,,0.00,meteohub,2013-02-25 06:22:00,
2013-02-25 01:27:00,35.6,30.7,30.11,NE,45,2.0,8.0,82,0.00,,,0.00,meteohub,2013-02-25 06:27:00,
2013-02-25 01:32:00,36.7,30.7,30.11,NW,315,2.0,8.0,79,0.00,,,0.00,meteohub,2013-02-25 06:32:00,
2013-02-25 01:37:00,37.2,30.9,30.11,NE,45,1.0,8.0,78,0.00,,,0.00,meteohub,2013-02-25 06:37:00,
2013-02-25 01:42:00,37.4,30.2,30.11,WNW,293,4.0,7.0,75,0.00,,,0.00,meteohub,2013-02-25 06:42:00,
2013-02-25 01:47:00,37.4,29.5,30.11,NW,315,5.0,7.0,73,0.00,,,0.00,meteohub,2013-02-25 06:47:00,
2013-02-25 01:52:00,37.4,29.1,30.11,East,90,3.0,7.0,72,0.00,,,0.00,meteohub,2013-02-25 06:52:00,
2013-02-25 01:57:00,37.4,28.9,30.11,NE,45,3.0,7.0,71,0.00,,,0.00,meteohub,2013-02-25 06:57:00,
2013-02-25 02:02:00,37.4,28.9,30.11,SW,225,3.0,5.0,71,0.00,,,0.00,meteohub,2013-02-25 07:02:00,
2013-02-25 02:07:00,37.4,28.9,30.11,SW,225,3.0,4.0,71,0.00,,,0.00,meteohub,2013-02-25 07:07:00,
2013-02-25 02:12:00,36.9,28.4,30.11,NE,45,2.0,4.0,71,0.00,,,0.00,meteohub,2013-02-25 07:12:00,
2013-02-25 02:17:00,36.3,27.5,30.12,SW,225,1.0,3.0,70,0.00,,,0.00,meteohub,2013-02-25 07:17:00,
2013-02-25 02:22:00,36.0,27.5,30.12,SW,225,1.0,3.0,71,0.00,,,0.00,meteohub,2013-02-25 07:22:00,
2013-02-25 02:27:00,35.6,27.1,30.12,SW,225,2.0,3.0,71,0.00,,,0.00,meteohub,2013-02-25 07:27:00,
2013-02-25 02:32:00,34.9,26.8,30.12,SW,225,2.0,3.0,72,0.00,,,0.00,meteohub,2013-02-25 07:32:00,
2013-02-25 02:37:00,34.0,26.2,30.12,SW,225,1.0,2.0,73,0.00,,,0.00,meteohub,2013-02-25 07:37:00,
2013-02-25 02:42:00,33.6,26.2,30.13,SW,225,2.0,2.0,74,0.00,,,0.00,meteohub,2013-02-25 07:42:00,
2013-02-25 02:47:00,33.4,26.4,30.12,East,90,2.0,2.0,75,0.00,,,0.00,meteohub,2013-02-25 07:47:00,
2013-02-25 02:52:00,34.0,27.0,30.12,ENE,68,2.0,5.0,75,0.00,,,0.00,meteohub,2013-02-25 07:52:00,
2013-02-25 02:57:00,34.0,26.6,30.12,SW,225,3.0,6.0,74,0.00,,,0.00,meteohub,2013-02-25 07:57:00,
2013-02-25 03:02:00,34.7,27.0,30.12,North,0,7.0,7.0,73,0.00,,,0.00,meteohub,2013-02-25 08:02:00,
2013-02-25 03:07:00,35.4,27.0,30.12,NE,45,2.0,16.0,71,0.00,,,0.00,meteohub,2013-02-25 08:07:00,
2013-02-25 03:12:00,35.1,26.2,30.12,North,0,3.0,16.0,70,0.00,,,0.00,meteohub,2013-02-25 08:12:00,
2013-02-25 03:17:00,35.2,26.4,30.12,NE,45,2.0,16.0,70,0.00,,,0.00,meteohub,2013-02-25 08:17:00,
2013-02-25 03:22:00,34.9,25.7,30.12,NE,45,2.0,5.0,69,0.00,,,0.00,meteohub,2013-02-25 08:22:00,
2013-02-25 03:27:00,34.9,25.7,30.12,South,180,2.0,4.0,69,0.00,,,0.00,meteohub,2013-02-25 08:27:00,
2013-02-25 03:32:00,34.5,25.7,30.11,South,180,2.0,4.0,70,0.00,,,0.00,meteohub,2013-02-25 08:32:00,
2013-02-25 03:37:00,34.2,25.3,30.12,SW,225,1.0,4.0,70,0.00,,,0.00,meteohub,2013-02-25 08:37:00,
2013-02-25 03:42:00,34.2,25.3,30.12,NE,45,1.0,4.0,70,0.00,,,0.00,meteohub,2013-02-25 08:42:00,
2013-02-25 03:47:00,34.2,25.3,30.12,North,0,2.0,6.0,70,0.00,,,0.00,meteohub,2013-02-25 08:47:00,
2013-02-25 03:52:00,34.2,25.0,30.13,NE,45,1.0,7.0,69,0.00,,,0.00,meteohub,2013-02-25 08:52:00,
2013-02-25 03:57:00,34.2,25.0,30.12,NE,45,2.0,7.0,69,0.00,,,0.00,meteohub,2013-02-25 08:57:00,
2013-02-25 04:05:00,34.2,25.0,30.13,NE,45,2.0,7.0,69,0.00,,,0.00,meteohub,2013-02-25 09:05:00,
2013-02-25 04:11:00,34.0,24.8,30.13,East,90,2.0,6.0,69,0.00,,,0.00,meteohub,2013-02-25 09:11:00,
2013-02-25 04:17:00,34.0,24.6,30.13,NW,315,2.0,6.0,68,0.00,,,0.00,meteohub,2013-02-25 09:17:00,
2013-02-25 04:22:00,34.0,24.8,30.13,South,180,2.0,4.0,69,0.00,,,0.00,meteohub,2013-02-25 09:22:00,
2013-02-25 04:27:00,33.8,24.8,30.13,NE,45,2.0,5.0,69,0.00,,,0.00,meteohub,2013-02-25 09:27:00,
2013-02-25 04:32:00,33.6,24.6,30.14,South,180,2.0,5.0,69,0.00,,,0.00,meteohub,2013-02-25 09:32:00,
2013-02-25 04:37:00,33.4,24.4,30.15,South,180,2.0,5.0,69,0.00,,,0.00,meteohub,2013-02-25 09:37:00,
2013-02-25 04:42:00,33.3,24.3,30.14,South,180,1.0,3.0,69,0.00,,,0.00,meteohub,2013-02-25 09:42:00,
2013-02-25 04:47:00,33.1,24.4,30.14,South,180,2.0,3.0,70,0.00,,,0.00,meteohub,2013-02-25 09:47:00,
2013-02-25 04:52:00,32.5,24.3,30.15,South,180,1.0,2.0,71,0.00,,,0.00,meteohub,2013-02-25 09:52:00,
2013-02-25 04:57:00,32.0,24.1,30.16,South,180,2.0,2.0,72,0.00,,,0.00,meteohub,2013-02-25 09:57:00,
2013-02-25 05:02:00,31.6,23.9,30.16,South,180,2.0,3.0,73,0.00,,,0.00,meteohub,2013-02-25 10:02:00,
2013-02-25 05:07:00,31.6,24.3,30.15,East,90,2.0,3.0,74,0.00,,,0.00,meteohub,2013-02-25 10:07:00,
2013-02-25 05:12:00,31.6,24.3,30.16,East,90,2.0,4.0,74,0.00,,,0.00,meteohub,2013-02-25 10:12:00,
2013-02-25 05:17:00,31.8,24.1,30.16,NW,315,1.0,4.0,73,0.00,,,0.00,meteohub,2013-02-25 10:17:00,
2013-02-25 05:22:00,31.8,24.4,30.16,North,0,2.0,4.0,74,0.00,,,0.00,meteohub,2013-02-25 10:22:00,
2013-02-25 05:27:00,31.8,24.4,30.16,East,90,4.0,4.0,74,0.00,,,0.00,meteohub,2013-02-25 10:27:00,
2013-02-25 05:32:00,32.0,24.6,30.17,East,90,2.0,4.0,74,0.00,,,0.00,meteohub,2013-02-25 10:32:00,
2013-02-25 05:37:00,32.0,24.6,30.17,NE,45,2.0,4.0,74,0.00,,,0.00,meteohub,2013-02-25 10:37:00,
2013-02-25 05:42:00,32.0,24.3,30.17,NE,45,1.0,4.0,73,0.00,,,0.00,meteohub,2013-02-25 10:42:00,
2013-02-25 05:47:00,32.2,24.4,30.17,SE,135,2.0,4.0,73,0.00,,,0.00,meteohub,2013-02-25 10:47:00,
2013-02-25 05:52:00,32.2,24.4,30.17,NE,45,2.0,4.0,73,0.00,,,0.00,meteohub,2013-02-25 10:52:00,
2013-02-25 05:59:00,32.0,24.3,30.17,NE,45,1.0,4.0,73,0.00,,,0.00,meteohub,2013-02-25 10:59:00,
2013-02-25 06:05:00,32.0,24.3,30.17,NE,45,0.0,2.0,73,0.00,,,0.00,meteohub,2013-02-25 11:05:00,
2013-02-25 06:11:00,31.6,23.9,30.18,NE,45,2.0,2.0,73,0.00,,,0.00,meteohub,2013-02-25 11:11:00,
2013-02-25 06:17:00,31.5,23.9,30.19,NE,45,1.0,2.0,73,0.00,,,0.00,meteohub,2013-02-25 11:17:00,
2013-02-25 06:22:00,31.3,23.9,30.19,NE,45,1.0,2.0,74,0.00,,,0.00,meteohub,2013-02-25 11:22:00,
2013-02-25 06:27:00,31.1,24.1,30.19,NE,45,1.0,2.0,75,0.00,,,0.00,meteohub,2013-02-25 11:27:00,
2013-02-25 06:32:00,30.9,24.3,30.19,East,90,2.0,2.0,76,0.00,,,0.00,meteohub,2013-02-25 11:32:00,
2013-02-25 06:37:00,30.7,24.1,30.19,East,90,2.0,2.0,76,0.00,,,0.00,meteohub,2013-02-25 11:37:00,
2013-02-25 06:42:00,30.6,23.9,30.19,East,90,0.0,2.0,76,0.00,,,0.00,meteohub,2013-02-25 11:42:00,
2013-02-25 06:47:00,30.4,24.1,30.19,South,180,2.0,2.0,77,0.00,,,0.00,meteohub,2013-02-25 11:47:00,
2013-02-25 06:52:00,30.2,23.9,30.19,South,180,2.0,2.0,77,0.00,,,0.00,meteohub,2013-02-25 11:52:00,
2013-02-25 06:57:00,30.4,24.1,30.19,SW,225,2.0,2.0,77,0.00,,,0.00,meteohub,2013-02-25 11:57:00,
2013-02-25 07:02:00,30.6,24.3,30.19,SE,135,2.0,3.0,77,0.00,,,0.00,meteohub,2013-02-25 12:02:00,
2013-02-25 07:09:00,30.9,24.6,30.19,NE,45,1.0,4.0,77,0.00,,,0.00,meteohub,2013-02-25 12:09:00,
2013-02-25 07:15:00,30.9,24.6,30.19,NE,45,2.0,4.0,77,0.00,,,0.00,meteohub,2013-02-25 12:15:00,
2013-02-25 07:21:00,31.3,24.6,30.19,NE,45,1.0,4.0,76,0.00,,,0.00,meteohub,2013-02-25 12:21:00,
2013-02-25 07:27:00,31.5,24.4,30.19,East,90,1.0,4.0,75,0.00,,,0.00,meteohub,2013-02-25 12:27:00,
2013-02-25 07:36:00,31.8,24.4,30.19,NW,315,2.0,4.0,74,0.00,,,0.00,meteohub,2013-02-25 12:36:00,
2013-02-25 07:42:00,32.0,24.3,30.19,NE,45,3.0,4.0,73,0.00,,,0.00,meteohub,2013-02-25 12:42:00,
2013-02-25 07:47:00,32.2,24.3,30.19,NE,45,2.0,5.0,72,0.00,,,0.00,meteohub,2013-02-25 12:47:00,
2013-02-25 07:53:00,32.4,24.1,30.20,North,0,2.0,5.0,71,0.00,,,0.00,meteohub,2013-02-25 12:53:00,
2013-02-25 08:02:00,32.7,24.1,30.20,North,0,2.0,4.0,70,0.00,,,0.00,meteohub,2013-02-25 13:02:00,
2013-02-25 08:08:00,32.9,23.9,30.21,North,0,3.0,4.0,69,0.00,,,0.00,meteohub,2013-02-25 13:08:00,
2013-02-25 08:15:00,33.1,23.4,30.22,NE,45,1.0,4.0,67,0.00,,,0.00,meteohub,2013-02-25 13:15:00,
2013-02-25 08:21:00,33.4,23.7,30.22,North,0,4.0,4.0,67,0.00,,,0.00,meteohub,2013-02-25 13:21:00,
2013-02-25 08:27:00,33.6,23.5,30.23,North,0,2.0,8.0,66,0.00,,,0.00,meteohub,2013-02-25 13:27:00,
2013-02-25 08:34:00,33.8,23.4,30.22,NNE,23,2.0,8.0,65,0.00,,,0.00,meteohub,2013-02-25 13:34:00,
2013-02-25 08:40:00,34.2,22.8,30.22,North,0,5.0,8.0,63,0.00,,,0.00,meteohub,2013-02-25 13:40:00,
2013-02-25 08:46:00,34.3,23.4,30.23,NE,45,2.0,8.0,64,0.00,,,0.00,meteohub,2013-02-25 13:46:00,
2013-02-25 08:52:00,34.5,23.2,30.22,South,180,4.0,8.0,63,0.00,,,0.00,meteohub,2013-02-25 13:52:00,
2013-02-25 08:59:00,35.1,23.4,30.22,North,0,5.0,6.0,62,0.00,,,0.00,meteohub,2013-02-25 13:59:00,
2013-02-25 09:05:00,35.1,22.1,30.23,ENE,68,5.0,5.0,59,0.00,,,0.00,meteohub,2013-02-25 14:05:00,
2013-02-25 09:11:00,35.2,22.3,30.23,SE,135,10.0,10.0,59,0.00,,,0.00,meteohub,2013-02-25 14:11:00,
2013-02-25 09:17:00,35.4,22.1,30.23,NW,315,2.0,10.0,58,0.00,,,0.00,meteohub,2013-02-25 14:17:00,
2013-02-25 09:22:00,35.6,22.3,30.25,North,0,6.0,10.0,58,0.00,,,0.00,meteohub,2013-02-25 14:22:00,
2013-02-25 09:27:00,36.0,22.3,30.25,South,180,2.0,10.0,57,0.00,,,0.00,meteohub,2013-02-25 14:27:00,
2013-02-25 09:32:00,36.3,22.5,30.24,NE,45,5.0,8.0,57,0.00,,,0.00,meteohub,2013-02-25 14:32:00,
2013-02-25 09:37:00,36.5,21.9,30.24,SW,225,8.0,9.0,55,0.00,,,0.00,meteohub,2013-02-25 14:37:00,
2013-02-25 09:42:00,36.5,21.0,30.25,West,270,4.0,9.0,53,0.00,,,0.00,meteohub,2013-02-25 14:42:00,
2013-02-25 09:47:00,36.7,21.6,30.25,NE,45,5.0,8.0,54,0.00,,,0.00,meteohub,2013-02-25 14:47:00,
2013-02-25 09:52:00,36.9,21.7,30.24,North,0,4.0,8.0,54,0.00,,,0.00,meteohub,2013-02-25 14:52:00,
2013-02-25 09:57:00,37.0,21.6,30.25,West,270,4.0,8.0,53,0.00,,,0.00,meteohub,2013-02-25 14:57:00,
2013-02-25 10:02:00,37.6,21.6,30.25,South,180,11.0,11.0,52,0.00,,,0.00,meteohub,2013-02-25 15:02:00,
2013-02-25 10:07:00,37.9,22.3,30.25,North,0,4.0,11.0,53,0.00,,,0.00,meteohub,2013-02-25 15:07:00,
2013-02-25 10:12:00,37.9,21.0,30.24,NW,315,4.0,11.0,50,0.00,,,0.00,meteohub,2013-02-25 15:12:00,
2013-02-25 10:17:00,38.3,21.2,30.24,North,0,5.0,11.0,50,0.00,,,0.00,meteohub,2013-02-25 15:17:00,
2013-02-25 10:22:00,38.5,21.9,30.24,East,90,4.0,10.0,51,0.00,,,0.00,meteohub,2013-02-25 15:22:00,
2013-02-25 10:27:00,38.8,21.7,30.24,North,0,8.0,8.0,50,0.00,,,0.00,meteohub,2013-02-25 15:27:00,
2013-02-25 10:32:00,39.2,22.1,30.25,NE,45,11.0,11.0,50,0.00,,,0.00,meteohub,2013-02-25 15:32:00,
2013-02-25 10:37:00,39.0,19.9,30.24,SE,135,4.0,11.0,46,0.00,,,0.00,meteohub,2013-02-25 15:37:00,
2013-02-25 10:42:00,39.2,21.6,30.24,NE,45,4.0,11.0,49,0.00,,,0.00,meteohub,2013-02-25 15:42:00,
2013-02-25 10:47:00,39.6,21.9,30.24,North,0,2.0,11.0,49,0.00,,,0.00,meteohub,2013-02-25 15:47:00,
2013-02-25 10:52:00,39.9,21.4,30.25,NE,45,8.0,8.0,47,0.00,,,0.00,meteohub,2013-02-25 15:52:00,
2013-02-25 10:57:00,39.7,20.7,30.24,NE,45,5.0,8.0,46,0.00,,,0.00,meteohub,2013-02-25 15:57:00,
2013-02-25 11:02:00,39.6,19.9,30.23,SE,135,4.0,8.0,45,0.00,,,0.00,meteohub,2013-02-25 16:02:00,
2013-02-25 11:07:00,39.6,20.5,30.23,NE,45,2.0,8.0,46,0.00,,,0.00,meteohub,2013-02-25 16:07:00,
2013-02-25 11:12:00,40.1,21.0,30.22,East,90,3.0,8.0,46,0.00,,,0.00,meteohub,2013-02-25 16:12:00,
2013-02-25 11:17:00,40.3,21.2,30.22,SE,135,2.0,8.0,46,0.00,,,0.00,meteohub,2013-02-25 16:17:00,
2013-02-25 11:22:00,40.6,21.6,30.22,North,0,4.0,5.0,46,0.00,,,0.00,meteohub,2013-02-25 16:22:00,
2013-02-25 11:27:00,40.8,21.2,30.22,South,180,3.0,5.0,45,0.00,,,0.00,meteohub,2013-02-25 16:27:00,
2013-02-25 11:32:00,40.8,20.7,30.22,NE,45,4.0,5.0,44,0.00,,,0.00,meteohub,2013-02-25 16:32:00,
2013-02-25 11:37:00,41.0,21.2,30.22,NE,45,1.0,5.0,45,0.00,,,0.00,meteohub,2013-02-25 16:37:00,
2013-02-25 11:42:00,41.2,20.8,30.22,NE,45,4.0,6.0,44,0.00,,,0.00,meteohub,2013-02-25 16:42:00,
2013-02-25 11:47:00,41.0,20.3,30.22,NE,45,5.0,6.0,43,0.00,,,0.00,meteohub,2013-02-25 16:47:00,
2013-02-25 11:52:00,41.0,20.8,30.22,NE,45,4.0,6.0,44,0.00,,,0.00,meteohub,2013-02-25 16:52:00,
2013-02-25 11:58:00,41.4,20.5,30.22,NNW,338,4.0,6.0,43,0.00,,,0.00,meteohub,2013-02-25 16:58:00,
2013-02-25 12:04:00,41.4,19.9,30.22,South,180,4.0,6.0,42,0.00,,,0.00,meteohub,2013-02-25 17:04:00,
2013-02-25 12:10:00,41.7,21.4,30.22,North,0,3.0,4.0,44,0.00,,,0.00,meteohub,2013-02-25 17:10:00,
2013-02-25 12:16:00,41.7,20.8,30.21,NE,45,4.0,6.0,43,0.00,,,0.00,meteohub,2013-02-25 17:16:00,
2013-02-25 12:22:00,41.5,20.1,30.21,North,0,6.0,6.0,42,0.00,,,0.00,meteohub,2013-02-25 17:22:00,
2013-02-25 12:27:00,41.7,21.4,30.21,North,0,4.0,7.0,44,0.00,,,0.00,meteohub,2013-02-25 17:27:00,
2013-02-25 12:32:00,41.7,20.3,30.20,NE,45,4.0,7.0,42,0.00,,,0.00,meteohub,2013-02-25 17:32:00,
2013-02-25 12:37:00,41.7,20.3,30.20,South,180,5.0,7.0,42,0.00,,,0.00,meteohub,2013-02-25 17:37:00,
2013-02-25 12:42:00,41.7,20.3,30.19,North,0,4.0,8.0,42,0.00,,,0.00,meteohub,2013-02-25 17:42:00,
2013-02-25 12:47:00,41.7,20.8,30.19,East,90,4.0,8.0,43,0.00,,,0.00,meteohub,2013-02-25 17:47:00,
2013-02-25 12:52:00,42.1,20.7,30.19,East,90,3.0,9.0,42,0.00,,,0.00,meteohub,2013-02-25 17:52:00,
2013-02-25 12:57:00,42.1,19.6,30.18,South,180,4.0,9.0,40,0.00,,,0.00,meteohub,2013-02-25 17:57:00,
2013-02-25 13:02:00,42.4,20.5,30.18,NW,315,4.0,9.0,41,0.00,,,0.00,meteohub,2013-02-25 18:02:00,
2013-02-25 13:07:00,42.3,20.8,30.18,North,0,2.0,6.0,42,0.00,,,0.00,meteohub,2013-02-25 18:07:00,
2013-02-25 13:12:00,42.4,21.0,30.19,SE,135,2.0,6.0,42,0.00,,,0.00,meteohub,2013-02-25 18:12:00,
2013-02-25 13:17:00,42.3,20.3,30.18,South,180,2.0,6.0,41,0.00,,,0.00,meteohub,2013-02-25 18:17:00,
2013-02-25 13:22:00,42.3,20.3,30.18,South,180,2.0,4.0,41,0.00,,,0.00,meteohub,2013-02-25 18:22:00,
2013-02-25 13:27:00,42.4,21.0,30.18,North,0,2.0,4.0,42,0.00,,,0.00,meteohub,2013-02-25 18:27:00,
2013-02-25 13:32:00,42.4,21.0,30.18,SE,135,3.0,8.0,42,0.00,,,0.00,meteohub,2013-02-25 18:32:00,
2013-02-25 13:37:00,42.6,20.5,30.18,South,180,2.0,8.0,41,0.00,,,0.00,meteohub,2013-02-25 18:37:00,
2013-02-25 13:42:00,42.4,19.8,30.19,North,0,3.0,6.0,40,0.00,,,0.00,meteohub,2013-02-25 18:42:00,
2013-02-25 13:47:00,42.3,20.3,30.20,NE,45,3.0,4.0,41,0.00,,,0.00,meteohub,2013-02-25 18:47:00,
2013-02-25 13:52:00,42.1,19.6,30.19,North,0,4.0,4.0,40,0.00,,,0.00,meteohub,2013-02-25 18:52:00,
2013-02-25 13:57:00,41.9,19.9,30.19,North,0,3.0,6.0,41,0.00,,,0.00,meteohub,2013-02-25 18:57:00,
2013-02-25 14:02:00,41.9,19.9,30.19,SW,225,4.0,6.0,41,0.00,,,0.00,meteohub,2013-02-25 19:02:00,
2013-02-25 14:07:00,42.1,20.7,30.19,North,0,2.0,6.0,42,0.00,,,0.00,meteohub,2013-02-25 19:07:00,
2013-02-25 14:12:00,42.1,20.1,30.19,North,0,2.0,6.0,41,0.00,,,0.00,meteohub,2013-02-25 19:12:00,
2013-02-25 14:17:00,42.3,19.6,30.19,NE,45,2.0,7.0,40,0.00,,,0.00,meteohub,2013-02-25 19:17:00,
2013-02-25 14:22:00,42.3,20.3,30.18,North,0,4.0,7.0,41,0.00,,,0.00,meteohub,2013-02-25 19:22:00,
2013-02-25 14:27:00,42.1,20.1,30.18,NW,315,2.0,7.0,41,0.00,,,0.00,meteohub,2013-02-25 19:27:00,
2013-02-25 14:32:00,42.3,20.3,30.18,East,90,3.0,5.0,41,0.00,,,0.00,meteohub,2013-02-25 19:32:00,
2013-02-25 14:37:00,42.4,20.5,30.17,East,90,2.0,5.0,41,0.00,,,0.00,meteohub,2013-02-25 19:37:00,
2013-02-25 14:44:00,42.4,20.5,30.17,North,0,3.0,4.0,41,0.00,,,0.00,meteohub,2013-02-25 19:44:00,
2013-02-25 14:50:00,42.4,20.5,30.17,NW,315,2.0,4.0,41,0.00,,,0.00,meteohub,2013-02-25 19:50:00,
2013-02-25 14:56:00,42.3,20.3,30.17,North,0,3.0,4.0,41,0.00,,,0.00,meteohub,2013-02-25 19:56:00,
2013-02-25 15:02:00,42.3,20.8,30.17,North,0,3.0,4.0,42,0.00,,,0.00,meteohub,2013-02-25 20:02:00,
2013-02-25 15:07:00,42.3,20.8,30.17,North,0,1.0,4.0,42,0.00,,,0.00,meteohub,2013-02-25 20:07:00,
2013-02-25 15:12:00,42.3,20.8,30.17,NE,45,2.0,4.0,42,0.00,,,0.00,meteohub,2013-02-25 20:12:00,
2013-02-25 15:17:00,42.3,20.8,30.17,North,0,4.0,6.0,42,0.00,,,0.00,meteohub,2013-02-25 20:17:00,
2013-02-25 15:22:00,42.3,20.8,30.16,South,180,4.0,6.0,42,0.00,,,0.00,meteohub,2013-02-25 20:22:00,
2013-02-25 15:27:00,42.3,21.4,30.17,North,0,2.0,6.0,43,0.00,,,0.00,meteohub,2013-02-25 20:27:00,
2013-02-25 15:32:00,42.3,21.9,30.16,East,90,2.0,4.0,44,0.00,,,0.00,meteohub,2013-02-25 20:32:00,
2013-02-25 15:37:00,42.4,22.1,30.16,North,0,3.0,4.0,44,0.00,,,0.00,meteohub,2013-02-25 20:37:00,
2013-02-25 15:42:00,42.3,21.9,30.16,NE,45,2.0,4.0,44,0.00,,,0.00,meteohub,2013-02-25 20:42:00,
2013-02-25 15:47:00,42.1,20.7,30.17,NE,45,4.0,5.0,42,0.00,,,0.00,meteohub,2013-02-25 20:47:00,
2013-02-25 15:52:00,41.9,21.0,30.17,NE,45,2.0,5.0,43,0.00,,,0.00,meteohub,2013-02-25 20:52:00,
2013-02-25 15:57:00,41.7,20.8,30.17,North,0,1.0,5.0,43,0.00,,,0.00,meteohub,2013-02-25 20:57:00,
2013-02-25 16:02:00,41.7,21.4,30.16,NE,45,2.0,4.0,44,0.00,,,0.00,meteohub,2013-02-25 21:02:00,
2013-02-25 16:07:00,41.7,21.9,30.17,North,0,2.0,3.0,45,0.00,,,0.00,meteohub,2013-02-25 21:07:00,
2013-02-25 16:12:00,41.7,21.4,30.18,SW,225,2.0,3.0,44,0.00,,,0.00,meteohub,2013-02-25 21:12:00,
2013-02-25 16:17:00,41.7,21.9,30.18,NW,315,1.0,3.0,45,0.00,,,0.00,meteohub,2013-02-25 21:17:00,
2013-02-25 16:22:00,41.7,22.5,30.17,NW,315,1.0,3.0,46,0.00,,,0.00,meteohub,2013-02-25 21:22:00,
2013-02-25 16:27:00,41.7,21.9,30.17,North,0,2.0,3.0,45,0.00,,,0.00,meteohub,2013-02-25 21:27:00,
2013-02-25 16:32:00,41.5,21.7,30.17,North,0,1.0,5.0,45,0.00,,,0.00,meteohub,2013-02-25 21:32:00,
2013-02-25 16:37:00,41.5,22.3,30.17,North,0,2.0,5.0,46,0.00,,,0.00,meteohub,2013-02-25 21:37:00,
2013-02-25 16:42:00,41.5,22.3,30.17,North,0,1.0,5.0,46,0.00,,,0.00,meteohub,2013-02-25 21:42:00,
2013-02-25 16:47:00,41.5,22.3,30.17,North,0,2.0,3.0,46,0.00,,,0.00,meteohub,2013-02-25 21:47:00,
2013-02-25 16:52:00,41.4,21.6,30.16,NW,315,4.0,4.0,45,0.00,,,0.00,meteohub,2013-02-25 21:52:00,
2013-02-25 16:57:00,41.4,22.1,30.16,NW,315,2.0,4.0,46,0.00,,,0.00,meteohub,2013-02-25 21:57:00,
2013-02-25 17:02:00,41.4,22.1,30.16,North,0,2.0,4.0,46,0.00,,,0.00,meteohub,2013-02-25 22:02:00,
2013-02-25 17:07:00,41.4,22.1,30.16,North,0,2.0,4.0,46,0.00,,,0.00,meteohub,2013-02-25 22:07:00,
2013-02-25 17:12:00,41.2,21.9,30.17,North,0,3.0,4.0,46,0.00,,,0.00,meteohub,2013-02-25 22:12:00,
2013-02-25 17:17:00,41.0,21.7,30.15,North,0,3.0,4.0,46,0.00,,,0.00,meteohub,2013-02-25 22:17:00,
2013-02-25 17:22:00,41.0,21.7,30.17,NW,315,3.0,4.0,46,0.00,,,0.00,meteohub,2013-02-25 22:22:00,
2013-02-25 17:27:00,40.8,21.6,30.17,North,0,1.0,4.0,46,0.00,,,0.00,meteohub,2013-02-25 22:27:00,
2013-02-25 17:32:00,40.8,22.1,30.16,North,0,1.0,4.0,47,0.00,,,0.00,meteohub,2013-02-25 22:32:00,
2013-02-25 17:37:00,40.6,21.9,30.17,North,0,2.0,3.0,47,0.00,,,0.00,meteohub,2013-02-25 22:37:00,
2013-02-25 17:42:00,40.3,22.1,30.17,North,0,1.0,3.0,48,0.00,,,0.00,meteohub,2013-02-25 22:42:00,
2013-02-25 17:47:00,40.1,22.5,30.17,North,0,1.0,3.0,49,0.00,,,0.00,meteohub,2013-02-25 22:47:00,
2013-02-25 17:52:00,39.7,22.1,30.17,North,0,1.0,3.0,49,0.00,,,0.00,meteohub,2013-02-25 22:52:00,
2013-02-25 17:57:00,39.4,22.3,30.17,North,0,2.0,3.0,50,0.00,,,0.00,meteohub,2013-02-25 22:57:00,
2013-02-25 18:02:00,39.2,22.1,30.17,North,0,1.0,2.0,50,0.00,,,0.00,meteohub,2013-02-25 23:02:00,
2013-02-25 18:07:00,38.8,22.6,30.18,North,0,0.0,2.0,52,0.00,,,0.00,meteohub,2013-02-25 23:07:00,
2013-02-25 18:12:00,38.3,22.6,30.17,North,0,0.0,2.0,53,0.00,,,0.00,meteohub,2013-02-25 23:12:00,
2013-02-25 18:17:00,37.9,22.8,30.17,North,0,2.0,2.0,54,0.00,,,0.00,meteohub,2013-02-25 23:17:00,
2013-02-25 18:22:00,37.4,23.2,30.16,North,0,1.0,2.0,56,0.00,,,0.00,meteohub,2013-02-25 23:22:00,
2013-02-25 18:27:00,36.9,22.6,30.17,North,0,0.0,2.0,56,0.00,,,0.00,meteohub,2013-02-25 23:27:00,
2013-02-25 18:32:00,36.3,23.7,30.17,North,0,1.0,2.0,60,0.00,,,0.00,meteohub,2013-02-25 23:32:00,
2013-02-25 18:37:00,35.6,23.0,30.17,North,0,1.0,2.0,60,0.00,,,0.00,meteohub,2013-02-25 23:37:00,
2013-02-25 18:42:00,35.2,23.2,30.18,North,0,1.0,2.0,61,0.00,,,0.00,meteohub,2013-02-25 23:42:00,
2013-02-25 18:47:00,34.9,23.5,30.18,North,0,1.0,2.0,63,0.00,,,0.00,meteohub,2013-02-25 23:47:00,
2013-02-25 18:52:00,34.5,23.5,30.18,North,0,2.0,2.0,64,0.00,,,0.00,meteohub,2013-02-25 23:52:00,
2013-02-25 18:57:00,34.0,23.5,30.18,North,0,1.0,2.0,65,0.00,,,0.00,meteohub,2013-02-25 23:57:00,
2013-02-25 19:02:00,33.4,23.4,30.18,North,0,2.0,2.0,66,0.00,,,0.00,meteohub,2013-02-26 00:02:00,
2013-02-25 19:07:00,33.1,23.4,30.17,North,0,2.0,2.0,67,0.00,,,0.00,meteohub,2013-02-26 00:07:00,
2013-02-25 19:12:00,32.5,23.2,30.19,North,0,2.0,2.0,68,0.00,,,0.00,meteohub,2013-02-26 00:12:00,
2013-02-25 19:17:00,32.4,23.0,30.19,North,0,1.0,2.0,68,0.00,,,0.00,meteohub,2013-02-26 00:17:00,
2013-02-25 19:22:00,31.8,22.8,30.19,North,0,2.0,2.0,69,0.00,,,0.00,meteohub,2013-02-26 00:22:00,
2013-02-25 19:27:00,31.5,22.8,30.19,North,0,1.0,2.0,70,0.00,,,0.00,meteohub,2013-02-26 00:27:00,
2013-02-25 19:32:00,31.1,22.5,30.19,North,0,1.0,2.0,70,0.00,,,0.00,meteohub,2013-02-26 00:32:00,
2013-02-25 19:37:00,30.7,22.5,30.20,North,0,2.0,2.0,71,0.00,,,0.00,meteohub,2013-02-26 00:37:00,
2013-02-25 19:42:00,30.6,22.3,30.20,North,0,1.0,2.0,71,0.00,,,0.00,meteohub,2013-02-26 00:42:00,
2013-02-25 19:47:00,30.2,21.9,30.20,North,0,1.0,2.0,71,0.00,,,0.00,meteohub,2013-02-26 00:47:00,
2013-02-25 19:52:00,29.8,21.9,30.20,North,0,0.0,2.0,72,0.00,,,0.00,meteohub,2013-02-26 00:52:00,
2013-02-25 19:57:00,29.7,21.7,30.19,North,0,1.0,1.0,72,0.00,,,0.00,meteohub,2013-02-26 00:57:00,
2013-02-25 20:02:00,29.5,21.9,30.20,North,0,1.0,2.0,73,0.00,,,0.00,meteohub,2013-02-26 01:02:00,
2013-02-25 20:07:00,29.5,21.9,30.20,North,0,1.0,2.0,73,0.00,,,0.00,meteohub,2013-02-26 01:07:00,
2013-02-25 20:13:00,29.3,22.3,30.19,North,0,2.0,2.0,75,0.00,,,0.00,meteohub,2013-02-26 01:13:00,
2013-02-25 20:19:00,28.9,22.1,30.19,North,0,1.0,2.0,75,0.00,,,0.00,meteohub,2013-02-26 01:19:00,
2013-02-25 20:25:00,28.9,22.3,30.19,North,0,0.0,2.0,76,0.00,,,0.00,meteohub,2013-02-26 01:25:00,
2013-02-25 20:31:00,28.8,22.1,30.20,North,0,2.0,2.0,76,0.00,,,0.00,meteohub,2013-02-26 01:31:00,
2013-02-25 20:37:00,28.8,22.1,30.20,North,0,2.0,2.0,76,0.00,,,0.00,meteohub,2013-02-26 01:37:00,
2013-02-25 20:42:00,28.6,22.3,30.20,North,0,1.0,2.0,77,0.00,,,0.00,meteohub,2013-02-26 01:42:00,
2013-02-25 20:47:00,28.6,22.3,30.20,North,0,0.0,2.0,77,0.00,,,0.00,meteohub,2013-02-26 01:47:00,
2013-02-25 20:52:00,28.4,22.1,30.20,North,0,0.0,2.0,77,0.00,,,0.00,meteohub,2013-02-26 01:52:00,
2013-02-25 20:57:00,28.4,22.5,30.20,North,0,0.0,1.0,78,0.00,,,0.00,meteohub,2013-02-26 01:57:00,
2013-02-25 21:02:00,28.4,22.5,30.20,North,0,1.0,1.0,78,0.00,,,0.00,meteohub,2013-02-26 02:02:00,
2013-02-25 21:07:00,28.4,22.5,30.19,North,0,1.0,1.0,78,0.00,,,0.00,meteohub,2013-02-26 02:07:00,
2013-02-25 21:12:00,28.2,22.6,30.20,North,0,0.0,1.0,79,0.00,,,0.00,meteohub,2013-02-26 02:12:00,
2013-02-25 21:17:00,28.2,22.6,30.19,North,0,0.0,1.0,79,0.00,,,0.00,meteohub,2013-02-26 02:17:00,
2013-02-25 21:22:00,28.2,22.8,30.20,North,0,2.0,2.0,80,0.00,,,0.00,meteohub,2013-02-26 02:22:00,
2013-02-25 21:27:00,28.4,23.0,30.20,North,0,0.0,2.0,80,0.00,,,0.00,meteohub,2013-02-26 02:27:00,
2013-02-25 21:32:00,28.2,22.8,30.21,North,0,1.0,2.0,80,0.00,,,0.00,meteohub,2013-02-26 02:32:00,
2013-02-25 21:37:00,28.2,23.2,30.21,North,0,1.0,2.0,81,0.00,,,0.00,meteohub,2013-02-26 02:37:00,
2013-02-25 21:42:00,28.2,23.2,30.20,North,0,1.0,2.0,81,0.00,,,0.00,meteohub,2013-02-26 02:42:00,
2013-02-25 21:47:00,28.2,23.2,30.19,North,0,1.0,2.0,81,0.00,,,0.00,meteohub,2013-02-26 02:47:00,
2013-02-25 21:52:00,28.0,23.0,30.19,North,0,2.0,2.0,81,0.00,,,0.00,meteohub,2013-02-26 02:52:00,
2013-02-25 21:57:00,28.2,23.2,30.18,North,0,0.0,2.0,81,0.00,,,0.00,meteohub,2013-02-26 02:57:00,
2013-02-25 22:02:00,28.2,23.2,30.19,North,0,1.0,2.0,81,0.00,,,0.00,meteohub,2013-02-26 03:02:00,
2013-02-25 22:07:00,28.2,23.2,30.19,North,0,1.0,2.0,81,0.00,,,0.00,meteohub,2013-02-26 03:07:00,
2013-02-25 22:12:00,28.2,23.4,30.19,North,0,1.0,1.0,82,0.00,,,0.00,meteohub,2013-02-26 03:12:00,
2013-02-25 22:17:00,28.2,23.4,30.19,North,0,1.0,2.0,82,0.00,,,0.00,meteohub,2013-02-26 03:17:00,
2013-02-25 22:22:00,28.2,23.4,30.19,North,0,1.0,2.0,82,0.00,,,0.00,meteohub,2013-02-26 03:22:00,
2013-02-25 22:27:00,28.2,23.4,30.19,North,0,1.0,2.0,82,0.00,,,0.00,meteohub,2013-02-26 03:27:00,
2013-02-25 22:32:00,28.0,23.2,30.19,North,0,0.0,2.0,82,0.00,,,0.00,meteohub,2013-02-26 03:32:00,
2013-02-25 22:37:00,28.0,23.5,30.19,North,0,0.0,2.0,83,0.00,,,0.00,meteohub,2013-02-26 03:37:00,
2013-02-25 22:44:00,28.0,23.5,30.19,North,0,0.0,2.0,83,0.00,,,0.00,meteohub,2013-02-26 03:44:00,
2013-02-25 22:50:00,28.2,23.7,30.18,North,0,0.0,2.0,83,0.00,,,0.00,meteohub,2013-02-26 03:50:00,
2013-02-25 22:56:00,28.4,23.9,30.18,North,0,0.0,2.0,83,0.00,,,0.00,meteohub,2013-02-26 03:56:00,
2013-02-25 23:02:00,28.6,24.1,30.18,North,0,1.0,2.0,83,0.00,,,0.00,meteohub,2013-02-26 04:02:00,
2013-02-25 23:07:00,28.8,24.6,30.18,North,0,1.0,2.0,84,0.00,,,0.00,meteohub,2013-02-26 04:07:00,
2013-02-25 23:12:00,28.9,24.8,30.18,North,0,0.0,2.0,84,0.00,,,0.00,meteohub,2013-02-26 04:12:00,
2013-02-25 23:17:00,29.1,25.0,30.17,North,0,0.0,2.0,84,0.00,,,0.00,meteohub,2013-02-26 04:17:00,
2013-02-25 23:22:00,29.1,25.0,30.17,North,0,2.0,2.0,84,0.00,,,0.00,meteohub,2013-02-26 04:22:00,
2013-02-25 23:27:00,29.1,25.0,30.17,North,0,0.0,2.0,84,0.00,,,0.00,meteohub,2013-02-26 04:27:00,
2013-02-25 23:32:00,29.1,25.0,30.18,North,0,0.0,2.0,84,0.00,,,0.00,meteohub,2013-02-26 04:32:00,
2013-02-25 23:37:00,29.1,25.0,30.17,North,0,0.0,2.0,84,0.00,,,0.00,meteohub,2013-02-26 04:37:00,
2013-02-25 23:42:00,29.1,25.0,30.17,North,0,1.0,2.0,84,0.00,,,0.00,meteohub,2013-02-26 04:42:00,
2013-02-25 23:47:00,29.3,25.2,30.17,North,0,2.0,2.0,84,0.00,,,0.00,meteohub,2013-02-26 04:47:00,
2013-02-25 23:52:00,29.3,25.3,30.17,North,0,1.0,2.0,85,0.00,,,0.00,meteohub,2013-02-26 04:52:00,
2013-02-25 23:59:00,29.3,25.3,30.17,North,0,1.0,2.0,85,0.00,,,0.00,meteohub,2013-02-26 04:59:00,